Epoch 2005 Jan. 30.0 TT = JDT 2453400.5 T 2005 Jan. 11.49204 TT MPC q 1.9172383 (2000.0) P Q n 0.06604682 Peri. 70.63085 -0.10438956 -0.99381719 a 6.0613324 Node 25.45177 +0.87626146 -0.10989389 e 0.6836936 Incl. 5.04857 +0.47039204 -0.01583436 P 14.92
m1 = 14.5 + 5 logΔ + 10.0 log r